Location: Unspecified
(0.0000°N, 0.0000°E)
Time: 05:13:07
(UTC+00:00)

deb West Ford - Pass Details

Date: 22 May 2026
Orbit: 2163 x 4941 km, 86.7° (Epoch: 8 June)

Event Time Altitude Azimuth Distance (km) Brightness Sun altitude
Exits shadow 03:02:45 17° 317° (NW) 4,182 ? -40.2°
Drops below altitude 10° 03:05:03 10° 326° (NW) 4,701 ? -39.7°
Sets 03:08:45 0° 336° (NNW) 5,676 ? -38.8°
